[[{"header":{"parameterUnit":"m.s-1","parameterCategory":2,"la1":30.2991,"la2":30.254,"lo1":-89.0895,"lo2":-89.0444,"dy":0.0017,"dx":0.0017,"nx":28,"ny":28,"refTime":"2025-06-18T09:00:00:Z","depth":"0","parameterNumber":2,"parameterNumberName":"U-component_of_CURRENTS"},"data":[0,0,0,0,0,0,0,0,0,0,0,0,0,0,0,0,0,0,0,0,0,0,0,0,0,0,0,0,0,0,0,0,0,0,0,0,0,0,0,0,0,0,0,0,0,0,0,0,0,0,0,0,0,0,0,0,0,0,0.177,0.177,0,0.1792,0.1792,0.1792,0.1792,0.1791,0.1791,0.1791,0.1798,0.1798,0.1799,0,0,0,0,0,0,0,0,0,0,0,0,0,0.1698,0.17,0.177,0.177,0.177,0.1792,0.1792,0.1793,0.1792,0.1791,0.1791,0.1791,0.1798,0.1798,0.1799,0,0,0,0,0,0,0,0,0,0,0,0,0,0.1726,0.17,0.177,0.1773,0.1773,0.1792,0.1792,0.1793,0.1792,0.1791,0.1791,0.1791,0.1798,0.1798,0.1799,0.1811,0,0,0.1801,0.1801,0,0,0,0,0,0,0,0,0.1724,0.1728,0.1772,0.1773,0.1773,0.1789,0.177,0.1798,0.1792,0.1784,0.1791,0.179,0.1794,0.1795,0.18,0.1812,0.1812,0.1801,0.1802,0.1802,0.1802,0,0,0,0,0,0,0,0.1722,0.1727,0.1778,0.1772,0.1773,0.1764,0.1767,0.1775,0.1791,0.1785,0.1785,0.1788,0.1794,0.1799,0.18,0.1812,0.1801,0.1802,0.1802,0.1802,0.1889,0.1891,0,0,0,0,0,0,0.1723,0.1726,0.1777,0.1779,0.1748,0.1765,0.1769,0.1784,0.1791,0.1792,0.1789,0.1788,0.1798,0.1799,0.18,0.1856,0.1802,0.1802,0.1803,0.1887,0.1889,0.1891,0,0,0,0,0,0,0.1721,0.1728,0.1777,0.1752,0.1758,0.1767,0.1784,0.1785,0.1796,0.1794,0.1794,0.18,0.1798,0.1799,0.1827,0.1854,0.1803,0.1803,0.1885,0.1888,0.189,0.1941,0,0,0,0,0,0,0.1719,0.1727,0.1738,0.1753,0.1759,0.1802,0.1784,0.1785,0.1799,0.1799,0.1804,0.1804,0.1798,0.1827,0.1828,0.1854,0.1804,0.1882,0.1886,0.189,0.1937,0.1945,0.1952,0,0,0,0,0,0.1717,0.1735,0.1739,0.1745,0.1775,0.1803,0.1806,0.181,0.18,0.1816,0.1823,0.1804,0.185,0.1829,0.183,0.1857,0.1881,0.1885,0.1889,0.1933,0.1943,0.1952,0,0,0,0,0,0,0.1709,0.1738,0.1742,0.1768,0.179,0.1803,0.1815,0.1817,0.1834,0.1828,0.1825,0.1827,0.1861,0.1857,0.1834,0.1895,0.1864,0.1868,0.1897,0.1906,0.1914,0.1916,0.1804,0,0,0,0,0,0.1713,0.1737,0.1761,0.1783,0.1794,0.1805,0.1816,0.1819,0.1834,0.184,0.1842,0.1853,0.1879,0.1891,0.1903,0.1936,0.1953,0.1957,0.1965,0.1971,0.1976,0.2026,0.2038,0.1905,0.1905,0.1905,0,0,0.1715,0.1734,0.1747,0.1783,0.1796,0.1818,0.1811,0.1831,0.1849,0.1838,0.1861,0.1875,0.1894,0.1932,0.1948,0.1933,0.2024,0.1976,0.1982,0.1983,0.2032,0.2044,0.2056,0.1908,0.1908,0.1907,0,0,0.1727,0.175,0.1771,0.1794,0.1819,0.1829,0.1838,0.1855,0.1866,0.1895,0.1897,0.1933,0.1956,0.1983,0.2,0.206,0.206,0.2065,0.2107,0.2156,0.2167,0.2176,0.2237,0.2252,0.2071,0.2072,0.2072,0,0.1724,0.1757,0.1781,0.1808,0.1825,0.1836,0.1858,0.1877,0.1899,0.192,0.1908,0.1976,0.1984,0.2054,0.2077,0.2077,0.2108,0.2067,0.2165,0.2175,0.2184,0.2243,0.2259,0.2074,0.2074,0.2074,0.2074,0,0.1751,0.1778,0.1794,0.1831,0.1857,0.1878,0.1906,0.1928,0.1938,0.1958,0.202,0.2044,0.2087,0.2103,0.2108,0.2186,0.219,0.2165,0.2137,0.22,0.2259,0.2275,0.2079,0.2078,0.2077,0.2076,0,0,0.1733,0.1798,0.1802,0.1822,0.1869,0.1888,0.1932,0.1978,0.2002,0.2041,0.2092,0.2152,0.2165,0.2187,0.2204,0.2251,0.2347,0.224,0.2241,0.2294,0.2474,0.2517,0.2538,0.2339,0.2342,0.2344,0.2497,0,0.1741,0.1786,0.1823,0.1862,0.1884,0.1924,0.1959,0.2004,0.2039,0.2089,0.2149,0.2197,0.2198,0.2224,0.2277,0.2325,0.2387,0.2309,0.241,0.2414,0.2439,0.2557,0.2524,0.2661,0.2512,0.2514,0.2516,0,0.1747,0.1777,0.1816,0.1872,0.1886,0.191,0.1969,0.2005,0.2088,0.2119,0.2195,0.2236,0.2337,0.2309,0.2448,0.2401,0.2446,0.2481,0.2487,0.2518,0.2486,0.2571,0.2694,0.2595,0.2539,0.2537,0.2536,0,0.1708,0.177,0.1797,0.1818,0.1883,0.1909,0.1942,0.2011,0.2053,0.2145,0.2193,0.2299,0.2365,0.2443,0.2538,0.2497,0.2686,0.2629,0.272,0.2723,0.2711,0.2709,0.2743,0.2728,0.2728,0.2728,0.2727,0,0.17,0.1722,0.1777,0.1792,0.1821,0.1877,0.192,0.1966,0.205,0.2113,0.2204,0.2288,0.2401,0.2525,0.2581,0.2729,0.2729,0.2765,0.2779,0.2731,0.273,0.2653,0.2574,0.2733,0.2732,0.2731,0.273,0,0.1663,0.1699,0.173,0.1788,0.1805,0.1824,0.1905,0.1942,0.2019,0.2111,0.2152,0.2312,0.2483,0.261,0.2757,0.2798,0.2851,0.2954,0.2906,0.2912,0.2882,0.2807,0.2788,0.2717,0.308,0.3083,0.3084,0,0.1647,0.1658,0.1712,0.1727,0.1754,0.1795,0.1828,0.1911,0.1963,0.213,0.2181,0.2383,0.2526,0.2792,0.2926,0.3085,0.2943,0.3114,0.3023,0.2918,0.2844,0.2697,0.2625,0.3035,0.3036,0.3037,0.3038,0,0.1615,0.1634,0.1661,0.169,0.172,0.1761,0.1819,0.1855,0.1968,0.2056,0.2201,0.2333,0.2637,0.2812,0.3046,0.3132,0.2972,0.3141,0.3038,0.2838,0.2672,0.2597,0.2896,0.3048,0.3047,0.3046,0.3045,0.3045,0.1582,0.1594,0.1627,0.1654,0.1685,0.1717,0.1734,0.1813,0.189,0.2011,0.2164,0.2331,0.263,0.2975,0.3052,0.3148,0.3062,0.3084,0.3017,0.2888,0.2773,0.3112,0.3265,0.3266,0.3266,0.3266,0.3266,0,0.1541,0.1569,0.1592,0.1619,0.163,0.1666,0.1721,0.1733,0.1799,0.1945,0.2068,0.2353,0.2591,0.2814,0.3036,0.3003,0.2886,0.2941,0.2699,0.2643,0.2975,0.2925,0.3003,0.3003,0.3003,0.3003,0.3003,0.3003,0.1524,0.1537,0.1559,0.1559,0.1572,0.1572,0.1588,0.162,0.17,0.1828,0.1966,0.213,0.2471,0.2753,0.2816,0.2796,0.2565,0.2538,0.2456,0.2658,0.2663,0.2668,0.2603,0.2611,0.2611,0.2066,0.2062,0.2059]},{"header":{"parameterUnit":"m.s-1","parameterCategory":2,"la1":30.2991,"la2":30.254,"lo1":-89.0895,"lo2":-89.0444,"dy":0.0017,"dx":0.0017,"nx":28,"ny":28,"refTime":"2025-06-18T09:00:00:Z","depth":"0","parameterNumber":3,"parameterNumberName":"V-component_of_CURRENTS"},"data":[0,0,0,0,0,0,0,0,0,0,0,0,0,0,0,0,0,0,0,0,0,0,0,0,0,0,0,0,0,0,0,0,0,0,0,0,0,0,0,0,0,0,0,0,0,0,0,0,0,0,0,0,0,0,0,0,0,0,0.0561,0.056,0,0.0498,0.0497,0.0497,0.0443,0.0442,0.0442,0.0442,0.0341,0.0339,0.0337,0,0,0,0,0,0,0,0,0,0,0,0,0,0.0582,0.0582,0.0561,0.056,0.056,0.0498,0.0497,0.0496,0.0443,0.0442,0.0442,0.0441,0.0342,0.0339,0.0337,0,0,0,0,0,0,0,0,0,0,0,0,0,0.055,0.0582,0.0561,0.0527,0.0523,0.0499,0.0497,0.0496,0.0443,0.0442,0.0442,0.0441,0.0343,0.034,0.0336,0.0328,0,0,0.0326,0.0324,0,0,0,0,0,0,0,0,0.0552,0.0549,0.0532,0.0529,0.0525,0.0479,0.0468,0.0439,0.0443,0.0472,0.0442,0.0441,0.0386,0.0379,0.0366,0.0324,0.0319,0.0326,0.0323,0.0322,0.0321,0,0,0,0,0,0,0,0.0554,0.0551,0.0534,0.0532,0.0527,0.0497,0.0492,0.0462,0.0431,0.0469,0.0466,0.0462,0.0383,0.037,0.0363,0.0318,0.0326,0.0323,0.032,0.0319,0.0268,0.0269,0,0,0,0,0,0,0.0569,0.0554,0.0536,0.0532,0.0539,0.0498,0.0492,0.0493,0.0432,0.0423,0.0462,0.0459,0.0376,0.0367,0.036,0.035,0.0322,0.0319,0.0317,0.0267,0.0268,0.0269,0,0,0,0,0,0,0.057,0.0568,0.0539,0.0542,0.0537,0.0498,0.05,0.0492,0.0482,0.0428,0.0417,0.046,0.0375,0.0364,0.0339,0.0346,0.0317,0.0314,0.0267,0.0268,0.0269,0.0329,0,0,0,0,0,0,0.0571,0.0569,0.0574,0.0544,0.0537,0.0541,0.0501,0.0492,0.0481,0.0477,0.0422,0.0412,0.0374,0.0345,0.0336,0.034,0.0312,0.0266,0.0267,0.0268,0.0326,0.0332,0.0337,0,0,0,0,0,0.0572,0.0584,0.0575,0.0573,0.0546,0.0542,0.0537,0.0505,0.0482,0.049,0.0446,0.0414,0.0346,0.0343,0.0332,0.0336,0.0265,0.0267,0.0268,0.0324,0.0331,0.0337,0,0,0,0,0,0,0.0596,0.0579,0.0568,0.0575,0.0568,0.0534,0.0533,0.0513,0.0485,0.0473,0.042,0.0408,0.0387,0.0358,0.0355,0.0326,0.0301,0.0301,0.0347,0.0353,0.0359,0.0377,0.0309,0,0,0,0,0,0.0606,0.0612,0.0593,0.0603,0.0598,0.0568,0.056,0.0541,0.0512,0.0499,0.046,0.0418,0.0386,0.0368,0.0336,0.0321,0.0289,0.0318,0.0324,0.0328,0.0337,0.0292,0.0294,0.0274,0.0274,0.0274,0,0,0.0617,0.0611,0.0612,0.0609,0.0594,0.0592,0.0561,0.0556,0.0551,0.0492,0.0471,0.0435,0.0387,0.0367,0.0356,0.0343,0.0318,0.033,0.0334,0.034,0.0294,0.0296,0.0298,0.0275,0.0275,0.0275,0,0,0.0644,0.0638,0.0649,0.0647,0.0636,0.0616,0.0621,0.0593,0.0577,0.0559,0.0512,0.0486,0.0436,0.0405,0.0381,0.04,0.0348,0.0389,0.0428,0.0385,0.0386,0.0387,0.0353,0.0351,0.0392,0.0392,0.0392,0,0.0655,0.0667,0.0654,0.0664,0.0662,0.0631,0.0639,0.0622,0.059,0.0582,0.0561,0.0493,0.0453,0.0427,0.0433,0.0411,0.0381,0.0406,0.0392,0.0392,0.0391,0.0357,0.0353,0.0395,0.0395,0.0395,0.0394,0,0.0688,0.0696,0.0704,0.0703,0.0702,0.0707,0.0684,0.068,0.0653,0.063,0.0606,0.0553,0.0515,0.0499,0.0469,0.0452,0.0429,0.0403,0.0375,0.0397,0.0359,0.0354,0.04,0.0398,0.0398,0.0397,0,0,0.0709,0.0722,0.0723,0.073,0.0722,0.0723,0.0724,0.0715,0.0711,0.0679,0.0674,0.062,0.0594,0.0568,0.0527,0.0493,0.0464,0.0454,0.045,0.0422,0.0373,0.0372,0.0365,0.043,0.0429,0.0429,0.035,0,0.0734,0.076,0.076,0.0778,0.0784,0.0769,0.0771,0.076,0.074,0.0729,0.0685,0.0659,0.0619,0.0602,0.0564,0.049,0.0452,0.0488,0.0356,0.0353,0.0349,0.036,0.0355,0.0285,0.0344,0.0343,0.0342,0,0.0759,0.0773,0.0796,0.0811,0.0812,0.0818,0.0818,0.0816,0.0798,0.0784,0.076,0.0725,0.0686,0.0642,0.0532,0.0555,0.0474,0.0413,0.0407,0.0382,0.0341,0.0272,0.0273,0.0127,0.0334,0.0334,0.0335,0,0.0771,0.0796,0.0815,0.082,0.083,0.0841,0.0842,0.0831,0.0836,0.0821,0.0826,0.0767,0.0742,0.0642,0.0535,0.0525,0.041,0.0373,0.0293,0.0292,0.0251,0.0248,0.0097,0.0286,0.0286,0.0286,0.0286,0,0.0791,0.0807,0.0823,0.0834,0.0856,0.0856,0.0875,0.0871,0.0874,0.089,0.0853,0.0857,0.0739,0.0669,0.0555,0.0422,0.042,0.0306,0.0272,0.0274,0.0274,0.0115,0.0051,0.0283,0.0284,0.0284,0.0285,0,0.0799,0.0809,0.0833,0.0854,0.0862,0.0874,0.0903,0.0917,0.0918,0.0943,0.0947,0.0917,0.0834,0.0714,0.0555,0.0452,0.0246,0.0268,0.029,0.0261,0.0054,-0.0005,-0.0157,-0.0199,0.0163,0.0162,0.0162,0,0.0802,0.0816,0.0847,0.0861,0.0872,0.0896,0.0915,0.0931,0.0956,0.0983,0.1001,0.0952,0.0936,0.0723,0.0529,0.0337,0.0218,0.02,0.0177,0.0047,-0.0045,-0.0078,-0.0104,0.0142,0.0141,0.0141,0.0141,0,0.0809,0.0821,0.084,0.0873,0.0897,0.0934,0.0969,0.1002,0.1032,0.1071,0.1105,0.1103,0.0924,0.076,0.0517,0.0363,0.0116,0.0185,0.003,-0.0081,-0.011,-0.0167,0.0194,0.0137,0.0137,0.0137,0.0138,0.0138,0.0808,0.0822,0.085,0.088,0.0913,0.0967,0.1007,0.1065,0.1127,0.1206,0.1194,0.1225,0.0986,0.0663,0.044,0.0041,0.0064,-0.0082,-0.0146,-0.0169,-0.0202,0.0167,0.0087,0.0087,0.0087,0.0087,0.0087,0,0.0802,0.0824,0.0856,0.0896,0.0938,0.096,0.1038,0.1096,0.1187,0.1278,0.1329,0.1255,0.0936,0.0593,0.0082,-0.0222,-0.0321,-0.0394,-0.0467,-0.0479,-0.0184,-0.0177,-0.0293,-0.0293,-0.0293,-0.0293,-0.0293,-0.0292,0.0797,0.0821,0.0843,0.0903,0.094,0.101,0.106,0.1161,0.1248,0.1379,0.1432,0.1464,0.1229,0.0271,-0.0383,-0.0541,-0.0738,-0.0788,-0.0863,-0.0701,-0.0678,-0.0655,-0.0667,-0.0884,-0.0885,-0.1124,-0.1127,-0.1129]}],[{"header":{"parameterUnit":"m.s-1","parameterCategory":2,"la1":30.2991,"la2":30.254,"lo1":-89.0895,"lo2":-89.0444,"dy":0.0017,"dx":0.0017,"nx":28,"ny":28,"refTime":"2025-06-18T09:00:00:Z","depth":"2","parameterNumber":2,"parameterNumberName":"U-component_of_CURRENTS"},"data":[0,0,0,0,0,0,0,0,0,0,0,0,0,0,0,0,0,0,0,0,0,0,0,0,0,0,0,0,0,0,0,0,0,0,0,0,0,0,0,0,0,0,0,0,0,0,0,0,0,0,0,0,0,0,0,0,0,0,0.0765,0.0765,0,0.0811,0.0812,0.0812,0.0908,0.0909,0.0911,0.0913,0.0842,0.0838,0.0835,0,0,0,0,0,0,0,0,0,0,0,0,0,0.072,0.0721,0.0765,0.0765,0.0766,0.0811,0.0812,0.0813,0.0907,0.0909,0.0912,0.0914,0.0843,0.0839,0.0835,0,0,0,0,0,0,0,0,0,0,0,0,0,0.0752,0.0721,0.0765,0.0818,0.0823,0.0811,0.0812,0.0813,0.0907,0.091,0.0912,0.0915,0.0844,0.0839,0.0834,0.0748,0,0,0.0818,0.0815,0,0,0,0,0,0,0,0,0.075,0.0753,0.0809,0.0814,0.082,0.0855,0.077,0.0785,0.0906,0.0876,0.0913,0.0916,0.0832,0.0828,0.0835,0.0744,0.0741,0.0817,0.0814,0.0812,0.081,0,0,0,0,0,0,0,0.0748,0.0752,0.0785,0.081,0.0816,0.0825,0.0833,0.0774,0.0838,0.0879,0.0886,0.0888,0.0835,0.084,0.0833,0.074,0.0817,0.0813,0.0809,0.0807,0.0798,0.0801,0,0,0,0,0,0,0.0738,0.075,0.0783,0.0786,0.0789,0.0824,0.0833,0.0842,0.0841,0.0844,0.0885,0.0892,0.0848,0.084,0.0831,0.0921,0.0812,0.0807,0.0804,0.0795,0.0799,0.0802,0,0,0,0,0,0,0.0737,0.0741,0.0781,0.0767,0.0773,0.0822,0.0831,0.0842,0.0902,0.0847,0.0849,0.0942,0.0849,0.0838,0.0817,0.0912,0.0804,0.08,0.0792,0.0796,0.08,0.0976,0,0,0,0,0,0,0.0736,0.074,0.0788,0.0767,0.0774,0.0779,0.0829,0.0841,0.0895,0.0906,0.0893,0.0888,0.0851,0.0826,0.0812,0.0902,0.0795,0.0788,0.0794,0.0799,0.0967,0.0986,0.1003,0,0,0,0,0,0.0734,0.0779,0.079,0.0796,0.0823,0.0778,0.0782,0.0826,0.0896,0.0898,0.0914,0.0891,0.0854,0.0821,0.0805,0.0897,0.0785,0.0792,0.0798,0.0959,0.0982,0.1002,0,0,0,0,0,0,0.0808,0.0792,0.0804,0.0851,0.0816,0.0794,0.0839,0.0853,0.0874,0.0923,0.0883,0.0874,0.0918,0.086,0.0826,0.0914,0.0833,0.0837,0.0961,0.0982,0.1,0.0927,0.0791,0,0,0,0,0,0.0835,0.0855,0.0818,0.0854,0.0855,0.0856,0.0869,0.0882,0.0877,0.0898,0.0908,0.0921,0.0921,0.0912,0.0902,0.0899,0.0845,0.0963,0.0981,0.0997,0.0929,0.0978,0.0994,0.0823,0.0823,0.0823,0,0,0.0873,0.0869,0.0885,0.0869,0.0875,0.0876,0.0874,0.0898,0.0924,0.0877,0.097,0.0981,0.0937,0.0977,0.0991,0.0942,0.1022,0.1005,0.1019,0.094,0.0987,0.1003,0.1017,0.0828,0.0827,0.0826,0,0,0.089,0.0956,0.0947,0.0945,0.094,0.0939,0.0952,0.0964,0.1005,0.1039,0.1058,0.1099,0.1102,0.1096,0.1085,0.1176,0.1128,0.122,0.1232,0.1286,0.1299,0.131,0.1281,0.1288,0.1217,0.1217,0.1217,0,0.0941,0.0946,0.0937,0.0934,0.0961,0.0975,0.0978,0.1008,0.1024,0.1047,0.1096,0.1147,0.1156,0.1148,0.1214,0.1218,0.1204,0.1161,0.1309,0.1318,0.1327,0.1293,0.1298,0.1226,0.1225,0.1224,0.1223,0,0.0931,0.0969,0.0982,0.0991,0.0994,0.1026,0.1034,0.1081,0.1167,0.1196,0.1254,0.1258,0.1283,0.133,0.1298,0.1363,0.1322,0.1345,0.1252,0.1354,0.1313,0.1315,0.1239,0.1236,0.1233,0.1231,0,0,0.0958,0.097,0.0981,0.0986,0.1054,0.1024,0.11,0.1117,0.1174,0.1244,0.1281,0.1346,0.1388,0.137,0.1369,0.1384,0.1488,0.1391,0.139,0.1352,0.155,0.1535,0.1534,0.156,0.1562,0.1563,0.1504,0,0.0965,0.0969,0.0969,0.0999,0.1025,0.1064,0.1139,0.1171,0.1229,0.1286,0.1301,0.1373,0.1395,0.144,0.1469,0.1488,0.1497,0.1495,0.1456,0.1451,0.1423,0.1539,0.1396,0.1334,0.1505,0.1505,0.1505,0,0.0979,0.0973,0.1002,0.1029,0.1043,0.1088,0.1167,0.1202,0.128,0.1335,0.1372,0.1406,0.1443,0.1468,0.1509,0.1518,0.1538,0.1523,0.1524,0.1424,0.1441,0.1256,0.133,0.1508,0.1507,0.1507,0.1507,0,0.1009,0.1005,0.1029,0.1055,0.1093,0.1128,0.1177,0.1266,0.1297,0.1365,0.1412,0.1453,0.1512,0.1532,0.1562,0.1573,0.1557,0.1595,0.155,0.1546,0.136,0.1339,0.1596,0.1596,0.1596,0.1596,0.1596,0,0.1063,0.1068,0.1062,0.1084,0.1136,0.1168,0.1225,0.129,0.1367,0.1384,0.1464,0.1451,0.1548,0.1552,0.1553,0.1557,0.1593,0.1528,0.1545,0.1421,0.1408,0.1493,0.1482,0.1594,0.1595,0.1595,0.1595,0,0.1094,0.1114,0.1115,0.1142,0.1162,0.1209,0.126,0.1283,0.1401,0.1401,0.1439,0.1512,0.1557,0.1571,0.1593,0.1579,0.1554,0.1529,0.1335,0.1333,0.1491,0.149,0.1494,0.1493,0.1492,0.1492,0.1492,0,0.1101,0.1118,0.1133,0.1147,0.1169,0.1213,0.1254,0.1332,0.1315,0.1383,0.1361,0.1457,0.1453,0.1481,0.1452,0.1437,0.1518,0.1327,0.134,0.1471,0.1488,0.1488,0.1487,0.1151,0.1148,0.1145,0.1143,0,0.1081,0.1114,0.1108,0.1148,0.1181,0.115,0.119,0.1183,0.122,0.126,0.127,0.1295,0.1318,0.1284,0.1313,0.1262,0.1336,0.1278,0.1483,0.1224,0.1152,0.1168,0.1178,0.112,0.1123,0.1124,0.1125,0.1126,0.1068,0.1077,0.1095,0.1126,0.115,0.1114,0.1096,0.107,0.1071,0.1092,0.1096,0.1136,0.1111,0.1122,0.1091,0.1113,0.1168,0.1159,0.1165,0.1175,0.1171,0.1106,0.1058,0.1059,0.1061,0.1062,0.1064,0,0.0998,0.1039,0.1055,0.1074,0.105,0.1123,0.1057,0.0993,0.0968,0.0986,0.1006,0.088,0.0879,0.0958,0.0932,0.0917,0.0873,0.0942,0.0894,0.0914,0.0932,0.0917,0.0736,0.0736,0.0736,0.0736,0,0,0.0983,0.0953,0.0966,0.0951,0.1019,0.1005,0.0996,0.0919,0.0895,0.0824,0.0867,0.0844,0.0905,0.0814,0.0768,0.0809,0.0869,0.0772,0.1015,0.0977,0.0997,0.1012,0.1005,0,0,0,0,0]},{"header":{"parameterUnit":"m.s-1","parameterCategory":2,"la1":30.2991,"la2":30.254,"lo1":-89.0895,"lo2":-89.0444,"dy":0.0017,"dx":0.0017,"nx":28,"ny":28,"refTime":"2025-06-18T09:00:00:Z","depth":"2","parameterNumber":3,"parameterNumberName":"V-component_of_CURRENTS"},"data":[0,0,0,0,0,0,0,0,0,0,0,0,0,0,0,0,0,0,0,0,0,0,0,0,0,0,0,0,0,0,0,0,0,0,0,0,0,0,0,0,0,0,0,0,0,0,0,0,0,0,0,0,0,0,0,0,0,0,-0.0229,-0.0229,0,-0.0275,-0.0275,-0.0276,-0.0288,-0.0287,-0.0287,-0.0286,-0.0415,-0.0418,-0.0422,0,0,0,0,0,0,0,0,0,0,0,0,0,-0.0173,-0.0174,-0.0229,-0.0229,-0.023,-0.0275,-0.0275,-0.0276,-0.0288,-0.0287,-0.0287,-0.0286,-0.0413,-0.0418,-0.0422,0,0,0,0,0,0,0,0,0,0,0,0,0,-0.0207,-0.0174,-0.0229,-0.024,-0.0241,-0.0275,-0.0275,-0.0276,-0.0288,-0.0287,-0.0287,-0.0286,-0.0412,-0.0417,-0.0423,-0.047,0,0,-0.044,-0.0443,0,0,0,0,0,0,0,0,-0.0205,-0.0209,-0.0238,-0.0239,-0.0241,-0.0274,-0.0303,-0.0345,-0.0288,-0.0271,-0.0286,-0.0286,-0.0375,-0.0383,-0.0394,-0.0476,-0.0481,-0.0441,-0.0444,-0.0447,-0.0448,0,0,0,0,0,0,0,-0.0203,-0.0207,-0.0248,-0.0238,-0.024,-0.025,-0.0254,-0.031,-0.0328,-0.0273,-0.0273,-0.0277,-0.0376,-0.0388,-0.0397,-0.0483,-0.0441,-0.0446,-0.0449,-0.0451,-0.054,-0.0539,0,0,0,0,0,0,-0.0194,-0.0205,-0.0247,-0.0249,-0.022,-0.0252,-0.0256,-0.0265,-0.0326,-0.0334,-0.0277,-0.0277,-0.0379,-0.0391,-0.0402,-0.0381,-0.0447,-0.0452,-0.0455,-0.0541,-0.054,-0.0539,0,0,0,0,0,0,-0.0193,-0.0198,-0.0245,-0.0227,-0.0233,-0.0253,-0.0263,-0.0266,-0.0247,-0.0328,-0.0338,-0.025,-0.0379,-0.0394,-0.0425,-0.039,-0.0454,-0.046,-0.0542,-0.0541,-0.0539,-0.0393,0,0,0,0,0,0,-0.0191,-0.0197,-0.0174,-0.0227,-0.0234,-0.0265,-0.0263,-0.0267,-0.0251,-0.025,-0.0309,-0.0322,-0.038,-0.0416,-0.0431,-0.0399,-0.0464,-0.0544,-0.0541,-0.054,-0.0399,-0.0386,-0.0375,0,0,0,0,0,-0.0189,-0.0165,-0.0173,-0.0176,-0.0211,-0.0265,-0.027,-0.0283,-0.025,-0.0257,-0.0275,-0.0319,-0.0413,-0.042,-0.0437,-0.0406,-0.0544,-0.0542,-0.054,-0.0404,-0.0389,-0.0376,0,0,0,0,0,0,-0.0114,-0.0166,-0.0175,-0.0162,-0.0211,-0.0267,-0.0247,-0.0258,-0.0274,-0.0259,-0.0314,-0.033,-0.0336,-0.0398,-0.0403,-0.0426,-0.0483,-0.0484,-0.0374,-0.0361,-0.0349,-0.0397,-0.0469,0,0,0,0,0,-0.0092,-0.0094,-0.0156,-0.0145,-0.0156,-0.0192,-0.0197,-0.0226,-0.0257,-0.026,-0.0271,-0.0304,-0.0346,-0.0372,-0.0414,-0.044,-0.0513,-0.043,-0.0418,-0.0408,-0.0459,-0.0497,-0.0494,-0.0531,-0.0531,-0.0531,0,0,-0.006,-0.0084,-0.0084,-0.0129,-0.0149,-0.0166,-0.0193,-0.0212,-0.0212,-0.0276,-0.0227,-0.0257,-0.034,-0.0354,-0.0364,-0.0401,-0.043,-0.0405,-0.0395,-0.0454,-0.0495,-0.0491,-0.0488,-0.0529,-0.0529,-0.053,0,0,-0.0035,-0.0018,-0.0032,-0.005,-0.0092,-0.0124,-0.012,-0.015,-0.0144,-0.0141,-0.0169,-0.0179,-0.0218,-0.0273,-0.0313,-0.027,-0.0355,-0.0268,-0.0264,-0.0296,-0.0294,-0.0293,-0.0356,-0.0362,-0.0274,-0.0274,-0.0274,0,0.001,-0.0009,-0.0043,-0.005,-0.005,-0.0092,-0.0106,-0.0111,-0.0136,-0.0136,-0.0109,-0.0168,-0.0186,-0.0271,-0.0235,-0.0243,-0.0297,-0.03,-0.0281,-0.0282,-0.0283,-0.0349,-0.0358,-0.0267,-0.0268,-0.0268,-0.0269,0,0.0019,0.0019,0.0026,0.0002,-0.0017,-0.0022,-0.0057,-0.0041,-0.0012,-0.0025,-0.0052,-0.0097,-0.014,-0.0132,-0.0167,-0.0202,-0.0246,-0.0243,-0.0312,-0.0271,-0.0342,-0.0354,-0.0256,-0.0259,-0.0261,-0.0263,0,0,0.0066,0.0035,0.004,0.0024,0.0019,-0.0018,0.0008,-0.0025,-0.0005,-0.0014,-0.002,-0.0057,-0.007,-0.0122,-0.0169,-0.0216,-0.021,-0.023,-0.0235,-0.029,-0.0317,-0.0273,-0.0283,-0.0198,-0.02,-0.0201,-0.0353,0,0.0084,0.0086,0.0051,0.0043,0.0044,0.0021,0.0068,0.004,0.0032,0.004,-0.0045,-0.0044,-0.0074,-0.0077,-0.0128,-0.018,-0.0241,-0.0174,-0.0358,-0.0366,-0.0327,-0.0294,-0.0266,-0.0393,-0.0365,-0.0367,-0.0369,0,0.011,0.0098,0.0111,0.0078,0.0079,0.0089,0.0099,0.0109,0.0097,0.0102,0.0029,-0.0015,-0.009,-0.0095,-0.0239,-0.0193,-0.0253,-0.0319,-0.0325,-0.0362,-0.0343,-0.0437,-0.0416,-0.039,-0.0388,-0.0387,-0.0385,0,0.017,0.013,0.0144,0.0151,0.0132,0.014,0.015,0.016,0.0169,0.0135,0.0128,0.0016,-0.0014,-0.0129,-0.0235,-0.0216,-0.0418,-0.0386,-0.045,-0.045,-0.051,-0.051,-0.0517,-0.0517,-0.0517,-0.0516,-0.0516,0,0.0224,0.0215,0.0187,0.0201,0.023,0.0208,0.0228,0.0247,0.0248,0.0238,0.0174,0.0101,-0.0016,-0.0147,-0.0252,-0.0391,-0.0415,-0.0477,-0.0484,-0.0452,-0.0446,-0.0519,-0.0517,-0.0522,-0.0521,-0.052,-0.0519,0,0.0271,0.028,0.0271,0.0259,0.0265,0.0299,0.0292,0.0293,0.0329,0.029,0.029,0.0192,0.0066,-0.0116,-0.0295,-0.0379,-0.0528,-0.0588,-0.0556,-0.0555,-0.0542,-0.0531,-0.0645,-0.0645,-0.0645,-0.0645,-0.0644,0,0.0297,0.0308,0.0314,0.0332,0.0325,0.0345,0.0367,0.0374,0.0348,0.0312,0.0284,0.018,0.0093,-0.0161,-0.0323,-0.0514,-0.0563,-0.0619,-0.0556,-0.056,-0.0556,-0.0545,-0.0535,-0.0588,-0.0587,-0.0587,-0.0586,0,0.0305,0.0332,0.0329,0.0379,0.0392,0.0364,0.0377,0.0378,0.0359,0.0369,0.0338,0.029,0.0069,-0.01,-0.0337,-0.0453,-0.0563,-0.0608,-0.0648,-0.0526,-0.0508,-0.0502,-0.0494,-0.0582,-0.0582,-0.0582,-0.0583,-0.0583,0.0325,0.0338,0.0367,0.04,0.0424,0.0413,0.0414,0.04,0.0427,0.0454,0.0362,0.0327,0.0064,-0.0172,-0.0364,-0.0504,-0.0509,-0.058,-0.0581,-0.0584,-0.0516,-0.0494,-0.0557,-0.0557,-0.0557,-0.0558,-0.0558,0,0.0302,0.0336,0.0371,0.041,0.0416,0.0454,0.0435,0.0438,0.0498,0.0495,0.0514,0.0274,0.0085,-0.0143,-0.034,-0.0493,-0.0487,-0.0528,-0.0525,-0.053,-0.0534,-0.0463,-0.0491,-0.0491,-0.049,-0.049,0,0,0.0306,0.0305,0.0322,0.0375,0.0446,0.0486,0.0511,0.0554,0.0564,0.0576,0.0572,0.0438,0.0123,-0.0048,-0.0279,-0.0362,-0.0382,-0.0353,-0.0395,-0.0369,-0.0369,-0.056,-0.0455,0,0,0,0,0]}],[{"header":{"parameterUnit":"m.s-1","parameterCategory":2,"la1":30.2991,"la2":30.254,"lo1":-89.0895,"lo2":-89.0444,"dy":0.0017,"dx":0.0017,"nx":28,"ny":28,"refTime":"2025-06-18T09:00:00:Z","depth":"4","parameterNumber":2,"parameterNumberName":"U-component_of_CURRENTS"},"data":[0,0,0,0,0,0,0,0,0,0,0,0,0,0,0,0,0,0,0,0,0,0,0,0,0,0,0,0,0,0,0,0,0,0,0,0,0,0,0,0,0,0,0,0,0,0,0,0,0,0,0,0,0,0,0,0,0,0,-0.0035,-0.0035,0,-0.0022,-0.0022,-0.0022,-0.0015,-0.0015,-0.0015,-0.0015,-0.0032,-0.0033,-0.0033,0,0,0,0,0,0,0,0,0,0,0,0,0,-0.0055,-0.0054,-0.0035,-0.0035,-0.0035,-0.0022,-0.0022,-0.0022,-0.0015,-0.0015,-0.0015,-0.0015,-0.0032,-0.0033,-0.0033,0,0,0,0,0,0,0,0,0,0,0,0,0,-0.0044,-0.0054,-0.0035,-0.003,-0.0029,-0.0022,-0.0022,-0.0022,-0.0015,-0.0015,-0.0015,-0.0015,-0.0032,-0.0033,-0.0033,-0.0039,0,0,-0.0036,-0.0036,0,0,0,0,0,0,0,0,-0.0045,-0.0044,-0.0031,-0.003,-0.0029,-0.002,-0.0035,-0.0029,-0.0015,-0.0021,-0.0015,-0.0015,-0.0031,-0.0032,-0.0029,-0.004,-0.004,-0.0036,-0.0036,-0.0036,-0.0037,0,0,0,0,0,0,0,-0.0046,-0.0044,-0.003,-0.0031,-0.003,-0.0028,-0.0026,-0.0034,-0.0027,-0.002,-0.002,-0.0018,-0.0031,-0.0028,-0.003,-0.0041,-0.0036,-0.0036,-0.0037,-0.0037,-0.007,-0.007,0,0,0,0,0,0,-0.0047,-0.0045,-0.0031,-0.003,-0.0037,-0.0027,-0.0026,-0.0023,-0.0026,-0.0026,-0.0018,-0.0017,-0.0027,-0.0029,-0.003,-0.0041,-0.0036,-0.0037,-0.0038,-0.0069,-0.007,-0.007,0,0,0,0,0,0,-0.0047,-0.0046,-0.0031,-0.0037,-0.0035,-0.0027,-0.0024,-0.0023,-0.0017,-0.0024,-0.0025,-0.0013,-0.0027,-0.0029,-0.0035,-0.0041,-0.0037,-0.0038,-0.0069,-0.007,-0.007,-0.0059,0,0,0,0,0,0,-0.0048,-0.0046,-0.0045,-0.0037,-0.0035,-0.0024,-0.0024,-0.0023,-0.0016,-0.0016,-0.002,-0.0022,-0.0027,-0.0034,-0.0036,-0.0042,-0.0039,-0.0068,-0.0069,-0.007,-0.0059,-0.0059,-0.006,0,0,0,0,0,-0.0049,-0.0047,-0.0045,-0.0043,-0.0033,-0.0024,-0.0023,-0.0017,-0.0016,-0.0012,-0.0017,-0.0022,-0.0041,-0.0034,-0.0036,-0.0043,-0.0068,-0.0069,-0.007,-0.0059,-0.0059,-0.006,0,0,0,0,0,0,-0.0055,-0.0045,-0.0043,-0.0039,-0.0031,-0.0023,-0.0019,-0.0015,-0.0015,-0.0016,-0.0022,-0.0024,-0.0034,-0.004,-0.0033,-0.0057,-0.0057,-0.0059,-0.0048,-0.0049,-0.0049,-0.004,-0.0039,0,0,0,0,0,-0.0055,-0.0052,-0.0042,-0.0039,-0.0034,-0.0026,-0.0022,-0.0018,-0.0016,-0.0015,-0.0018,-0.0027,-0.004,-0.0044,-0.0055,-0.0063,-0.0057,-0.0072,-0.0072,-0.0072,-0.0067,-0.0073,-0.0073,-0.0074,-0.0074,-0.0074,0,0,-0.0057,-0.0052,-0.005,-0.004,-0.0034,-0.0027,-0.0023,-0.0016,-0.0014,-0.0019,-0.0017,-0.0027,-0.0043,-0.0054,-0.0059,-0.0059,-0.0065,-0.0073,-0.0073,-0.0068,-0.0074,-0.0074,-0.0074,-0.0074,-0.0074,-0.0074,0,0,-0.0058,-0.0053,-0.0049,-0.0042,-0.0032,-0.0027,-0.0024,-0.0014,-0.0012,-0.0012,-0.0021,-0.003,-0.0042,-0.0054,-0.0064,-0.0073,-0.0068,-0.0081,-0.0073,-0.0079,-0.0079,-0.0079,-0.0052,-0.0049,-0.008,-0.008,-0.008,0,-0.006,-0.0053,-0.0046,-0.0039,-0.0035,-0.0027,-0.0021,-0.0018,-0.0012,-0.0011,-0.0011,-0.003,-0.0043,-0.006,-0.0064,-0.0073,-0.0063,-0.0068,-0.0078,-0.0078,-0.0078,-0.0051,-0.0048,-0.008,-0.008,-0.008,-0.008,0,-0.0056,-0.005,-0.0046,-0.0036,-0.0032,-0.0025,-0.0019,-0.0014,-0.0011,-0.0009,-0.0017,-0.0031,-0.0039,-0.0052,-0.006,-0.0071,-0.0059,-0.0077,-0.0073,-0.0077,-0.0048,-0.0045,-0.0079,-0.0079,-0.0079,-0.008,0,0,-0.0059,-0.0045,-0.0044,-0.0039,-0.0029,-0.0025,-0.0021,-0.0015,-0.001,-0.001,-0.0006,-0.0031,-0.003,-0.0041,-0.0054,-0.0062,-0.005,-0.0066,-0.0067,-0.0032,-0.0036,0.0007,0.0014,-0.007,-0.007,-0.007,-0.0008,0,-0.0056,-0.0045,-0.004,-0.0032,-0.0026,-0.002,-0.0018,-0.0013,-0.0008,-0.0001,-0.0014,-0.0016,-0.0029,-0.0031,-0.0041,-0.0052,-0.0046,-0.0063,-0.0044,-0.0043,0.0,0.0017,-0.007,-0.0006,-0.0006,-0.0005,-0.0005,0,-0.0053,-0.0045,-0.0038,-0.0029,-0.0026,-0.0023,-0.0014,-0.001,-0.0001,0.0004,0.0005,0.0004,-0.0002,-0.0016,-0.0018,-0.0027,-0.0025,-0.0032,-0.003,0.0007,0.0003,-0.0008,-0.0,-0.0,-0.0001,-0.0001,-0.0001,0,-0.006,-0.0045,-0.0041,-0.0038,-0.0027,-0.0025,-0.0017,-0.0009,-0.0003,0.0013,0.0023,0.002,0.0024,0.0015,0.0015,-0.0001,0.0019,-0.0006,0.004,0.0044,-0.0017,-0.0019,-0.0002,-0.0003,-0.0003,-0.0003,-0.0003,0,-0.006,-0.0056,-0.0043,-0.0041,-0.0037,-0.0027,-0.0021,-0.001,0.0005,0.0016,0.0027,0.0039,0.0029,0.0042,0.0033,0.006,0.0039,0.0057,0.0061,-0.0012,-0.0013,-0.0014,-0.0016,-0.0,-0.0001,-0.0001,-0.0002,0,-0.0071,-0.0062,-0.0059,-0.0047,-0.0042,-0.004,-0.0024,-0.0015,0.0005,0.0024,0.0032,0.0058,0.0086,0.0091,0.0091,0.0095,0.0104,0.0117,0.0075,0.0073,0.0134,0.0131,0.0183,0.0185,0.0187,0.0188,0.0189,0,-0.0076,-0.0076,-0.0068,-0.0066,-0.0062,-0.0052,-0.0044,-0.0021,-0.0007,0.0035,0.0045,0.0089,0.0107,0.0159,0.0152,0.0176,0.0164,0.0186,0.0131,0.0153,0.0152,0.0147,0.0142,0.0192,0.0192,0.0193,0.0193,0,-0.009,-0.0091,-0.0091,-0.0083,-0.0076,-0.0063,-0.0043,-0.0029,0.0006,0.0018,0.0076,0.0116,0.016,0.0183,0.0218,0.0217,0.0177,0.0203,0.0198,0.0147,0.0164,0.016,0.0154,0.0199,0.0198,0.0198,0.0197,0,-0.0109,-0.0112,-0.0108,-0.0102,-0.009,-0.0063,-0.0052,-0.0014,0.001,0.0063,0.008,0.0131,0.0157,0.0206,0.0223,0.025,0.024,0.0231,0.0225,0.0219,0.0202,0.0227,0.0298,0,0,0,0,0,-0.0127,-0.0125,-0.0121,-0.0105,-0.0089,-0.0073,-0.0046,-0.003,0.0005,0.0051,0.0073,0.0119,0.0184,0.0205,0.0241,0.0234,0.0231,0.0275,0.0214,0.0231,0.0224,0.02,0,0,0,0,0,0,-0.0138,-0.0138,-0.0127,-0.0103,-0.0085,-0.0058,-0.0035,-0.001,0.0023,0.0057,0.009,0.0122,0.0176,0.0161,0.0238,0.0247,0.0214,0.0304,0.0305,0.0235,0.0229,0.0223,0.0196,0,0,0,0,0]},{"header":{"parameterUnit":"m.s-1","parameterCategory":2,"la1":30.2991,"la2":30.254,"lo1":-89.0895,"lo2":-89.0444,"dy":0.0017,"dx":0.0017,"nx":28,"ny":28,"refTime":"2025-06-18T09:00:00:Z","depth":"4","parameterNumber":3,"parameterNumberName":"V-component_of_CURRENTS"},"data":[0,0,0,0,0,0,0,0,0,0,0,0,0,0,0,0,0,0,0,0,0,0,0,0,0,0,0,0,0,0,0,0,0,0,0,0,0,0,0,0,0,0,0,0,0,0,0,0,0,0,0,0,0,0,0,0,0,0,-0.0306,-0.0306,0,-0.0344,-0.0344,-0.0345,-0.0404,-0.0405,-0.0406,-0.0407,-0.0531,-0.0533,-0.0536,0,0,0,0,0,0,0,0,0,0,0,0,0,-0.0256,-0.0257,-0.0306,-0.0306,-0.0306,-0.0343,-0.0344,-0.0345,-0.0404,-0.0405,-0.0407,-0.0408,-0.053,-0.0533,-0.0536,0,0,0,0,0,0,0,0,0,0,0,0,0,-0.0286,-0.0257,-0.0306,-0.0339,-0.0342,-0.0343,-0.0344,-0.0345,-0.0404,-0.0405,-0.0407,-0.0408,-0.0529,-0.0533,-0.0536,-0.0531,0,0,-0.0547,-0.0549,0,0,0,0,0,0,0,0,-0.0284,-0.0288,-0.0334,-0.0337,-0.034,-0.0369,-0.0372,-0.0411,-0.0404,-0.0383,-0.0407,-0.0409,-0.0482,-0.049,-0.0495,-0.0537,-0.0542,-0.0548,-0.055,-0.0551,-0.0552,0,0,0,0,0,0,0,-0.0282,-0.0286,-0.0323,-0.0334,-0.0338,-0.0342,-0.0348,-0.0379,-0.0427,-0.0385,-0.0388,-0.0389,-0.0485,-0.0492,-0.0499,-0.0544,-0.0548,-0.0551,-0.0553,-0.0554,-0.068,-0.0681,0,0,0,0,0,0,-0.0274,-0.0284,-0.0321,-0.0323,-0.0313,-0.0342,-0.0349,-0.036,-0.0425,-0.0435,-0.0388,-0.0392,-0.0485,-0.0495,-0.0504,-0.0587,-0.0551,-0.0555,-0.0557,-0.0679,-0.068,-0.0681,0,0,0,0,0,0,-0.0272,-0.0277,-0.032,-0.0303,-0.0308,-0.0341,-0.0353,-0.036,-0.0397,-0.0427,-0.0439,-0.0422,-0.0486,-0.0499,-0.0559,-0.0589,-0.0556,-0.056,-0.0677,-0.0679,-0.0681,-0.07,0,0,0,0,0,0,-0.0271,-0.0276,-0.0292,-0.0302,-0.0309,-0.0338,-0.0352,-0.036,-0.0393,-0.0399,-0.0459,-0.047,-0.0488,-0.0553,-0.0563,-0.0594,-0.0563,-0.0676,-0.0678,-0.068,-0.0698,-0.0702,-0.0705,0,0,0,0,0,-0.0269,-0.0283,-0.0293,-0.0298,-0.0326,-0.0338,-0.0343,-0.0371,-0.0393,-0.041,-0.0456,-0.047,-0.0574,-0.0557,-0.0568,-0.0601,-0.0675,-0.0678,-0.068,-0.0696,-0.0701,-0.0705,0,0,0,0,0,0,-0.0276,-0.029,-0.0302,-0.0322,-0.0337,-0.0348,-0.0366,-0.0385,-0.0432,-0.045,-0.0484,-0.0498,-0.0563,-0.0577,-0.0558,-0.0643,-0.0627,-0.0632,-0.0635,-0.064,-0.0644,-0.0622,-0.0566,0,0,0,0,0,-0.028,-0.0297,-0.0308,-0.0327,-0.0335,-0.0356,-0.0369,-0.0389,-0.0421,-0.0444,-0.0491,-0.0537,-0.0575,-0.0605,-0.0641,-0.0686,-0.0667,-0.0714,-0.0718,-0.0721,-0.071,-0.0705,-0.0707,-0.069,-0.069,-0.069,0,0,-0.0287,-0.0299,-0.0309,-0.033,-0.0344,-0.0354,-0.0369,-0.0396,-0.0414,-0.045,-0.0513,-0.0557,-0.059,-0.0643,-0.0673,-0.0664,-0.0717,-0.0724,-0.0727,-0.0714,-0.0708,-0.0709,-0.0711,-0.0692,-0.0691,-0.0691,0,0,-0.0295,-0.0321,-0.0331,-0.0343,-0.0365,-0.0374,-0.0387,-0.042,-0.0449,-0.0504,-0.0534,-0.0591,-0.0662,-0.0683,-0.0701,-0.0745,-0.0738,-0.0773,-0.0776,-0.0772,-0.0773,-0.0773,-0.0747,-0.0745,-0.0774,-0.0774,-0.0774,0,-0.0302,-0.0318,-0.0336,-0.0346,-0.0356,-0.0384,-0.0394,-0.0418,-0.0474,-0.0497,-0.0533,-0.0633,-0.0672,-0.0708,-0.0734,-0.0753,-0.0744,-0.0756,-0.0775,-0.0775,-0.0775,-0.0748,-0.0745,-0.0775,-0.0775,-0.0775,-0.0775,0,-0.031,-0.0328,-0.0336,-0.0355,-0.037,-0.0386,-0.0409,-0.0447,-0.0495,-0.0521,-0.0594,-0.0651,-0.0706,-0.0735,-0.0755,-0.0782,-0.0772,-0.0779,-0.0757,-0.0778,-0.0748,-0.0745,-0.0777,-0.0776,-0.0776,-0.0776,0,0,-0.0309,-0.0333,-0.0338,-0.0345,-0.0377,-0.0385,-0.0418,-0.0444,-0.0467,-0.0546,-0.0577,-0.0665,-0.0707,-0.0729,-0.0766,-0.0773,-0.0776,-0.0785,-0.0784,-0.0747,-0.0754,-0.0732,-0.0726,-0.0792,-0.0792,-0.0792,-0.0731,0,-0.0308,-0.0317,-0.0335,-0.0351,-0.0356,-0.0388,-0.041,-0.0445,-0.049,-0.0532,-0.0591,-0.0647,-0.0698,-0.0741,-0.0757,-0.0774,-0.077,-0.0791,-0.0749,-0.0747,-0.0716,-0.0723,-0.0791,-0.0728,-0.0727,-0.0727,-0.0726,0,-0.0309,-0.0313,-0.0322,-0.0342,-0.0349,-0.0366,-0.0401,-0.0428,-0.0478,-0.0521,-0.0582,-0.0627,-0.0672,-0.0709,-0.0732,-0.0747,-0.0752,-0.0756,-0.0754,-0.0722,-0.072,-0.0706,-0.072,-0.0721,-0.0721,-0.0722,-0.0722,0,-0.0291,-0.0307,-0.0311,-0.032,-0.0346,-0.0364,-0.0389,-0.0434,-0.0453,-0.0517,-0.0538,-0.0601,-0.0631,-0.0659,-0.0692,-0.0717,-0.0687,-0.0715,-0.0687,-0.0684,-0.0711,-0.0712,-0.0706,-0.0706,-0.0706,-0.0706,-0.0706,0,-0.0283,-0.0289,-0.0305,-0.031,-0.032,-0.0354,-0.0377,-0.0414,-0.0454,-0.0465,-0.0539,-0.0549,-0.0622,-0.0623,-0.066,-0.0657,-0.066,-0.0676,-0.0669,-0.0722,-0.0724,-0.0708,-0.0709,-0.0704,-0.0704,-0.0705,-0.0705,0,-0.0271,-0.0281,-0.0284,-0.0305,-0.0313,-0.033,-0.0363,-0.0376,-0.0423,-0.0435,-0.0456,-0.05,-0.0517,-0.0554,-0.0575,-0.0599,-0.0607,-0.0598,-0.0623,-0.062,-0.0613,-0.0616,-0.0568,-0.0566,-0.0565,-0.0564,-0.0564,0,-0.0265,-0.0266,-0.0276,-0.0276,-0.0291,-0.0312,-0.0324,-0.0368,-0.0374,-0.0398,-0.0392,-0.041,-0.0442,-0.0435,-0.0496,-0.0532,-0.0547,-0.0538,-0.0612,-0.0602,-0.06,-0.0605,-0.0609,-0.0562,-0.0562,-0.0561,-0.0561,0,-0.0252,-0.026,-0.026,-0.0259,-0.0267,-0.0271,-0.029,-0.0286,-0.0324,-0.0339,-0.0332,-0.036,-0.0358,-0.0408,-0.0424,-0.0461,-0.0548,-0.0528,-0.0532,-0.0601,-0.0595,-0.0595,-0.06,-0.0558,-0.0558,-0.0558,-0.0559,0,-0.0245,-0.024,-0.0241,-0.024,-0.0243,-0.0247,-0.0256,-0.0255,-0.0265,-0.0284,-0.0268,-0.0303,-0.0322,-0.0367,-0.0387,-0.0419,-0.045,-0.0472,-0.048,-0.0484,-0.0498,-0.0481,-0.0391,0,0,0,0,0,-0.0237,-0.0229,-0.0223,-0.0226,-0.0228,-0.0234,-0.0237,-0.0245,-0.0251,-0.0234,-0.0258,-0.0264,-0.031,-0.0331,-0.0359,-0.039,-0.0466,-0.0424,-0.0498,-0.0538,-0.0542,-0.0573,0,0,0,0,0,0,-0.0231,-0.0225,-0.0217,-0.0215,-0.0215,-0.0222,-0.0226,-0.0231,-0.0224,-0.0229,-0.0248,-0.0263,-0.0305,-0.0287,-0.0354,-0.0366,-0.0416,-0.0447,-0.0448,-0.0535,-0.0539,-0.0542,-0.0576,0,0,0,0,0]}]]